Time,TemperatureF,DewpointF,PressureIn,WindDirection,WindDirectionDegrees,WindSpeedMPH,WindSpeedGustMPH,Humidity,HourlyPrecipIn,Conditions,Clouds,dailyrainin,SoftwareType,DateUTC
2013-04-06 00:19:00,42.6,-0.5,30.08,NNW,337,5.0,11.0,16,0.00,CLR,,0.00,WeatherDisplay:10.37,2013-04-06 04:19:00,
2013-04-06 00:29:00,41.9,-1.1,30.08,NW,321,7.0,12.0,16,0.00,CLR,,0.00,WeatherDisplay:10.37,2013-04-06 04:29:00,
2013-04-06 00:49:00,41.0,-1.9,30.11,NW,326,2.0,7.0,16,0.00,CLR,,0.00,WeatherDisplay:10.37,2013-04-06 04:49:00,
2013-04-06 00:59:00,40.5,-2.3,30.08,NW,314,3.0,8.0,16,0.00,CLR,,0.00,WeatherDisplay:10.37,2013-04-06 04:59:00,
2013-04-06 01:09:00,40.6,-2.2,30.11,NW,312,3.0,8.0,16,0.00,CLR,,0.00,WeatherDisplay:10.37,2013-04-06 05:09:00,
2013-04-06 01:19:00,40.5,-2.3,30.11,NW,326,1.0,6.0,16,0.00,CLR,,0.00,WeatherDisplay:10.37,2013-04-06 05:19:00,
2013-04-06 01:29:00,39.7,-2.9,30.11,WNW,303,3.0,6.0,16,0.00,CLR,,0.00,WeatherDisplay:10.37,2013-04-06 05:29:00,
2013-04-06 01:39:00,39.4,-3.2,30.14,WNW,297,1.0,6.0,16,0.00,CLR,,0.00,WeatherDisplay:10.37,2013-04-06 05:39:00,
2013-04-06 01:49:00,39.0,-3.5,30.14,NW,321,0.0,4.0,16,0.00,CLR,,0.00,WeatherDisplay:10.37,2013-04-06 05:49:00,
2013-04-06 01:59:00,38.3,-4.1,30.14,NNW,327,0.0,6.0,16,0.00,CLR,,0.00,WeatherDisplay:10.37,2013-04-06 05:59:00,
2013-04-06 02:19:00,38.5,-3.9,30.14,WNW,297,5.0,9.0,16,0.00,CLR,,0.00,WeatherDisplay:10.37,2013-04-06 06:19:00,
2013-04-06 02:29:00,38.7,-0.1,30.14,NW,326,5.0,8.0,19,0.00,CLR,,0.00,WeatherDisplay:10.37,2013-04-06 06:29:00,
2013-04-06 02:39:00,38.3,-0.4,30.14,NW,322,3.0,8.0,19,0.00,CLR,,0.00,WeatherDisplay:10.37,2013-04-06 06:39:00,
2013-04-06 02:49:00,37.8,-0.9,30.14,NW,319,0.0,7.0,19,0.00,CLR,,0.00,WeatherDisplay:10.37,2013-04-06 06:49:00,
2013-04-06 02:59:00,37.1,-1.5,30.14,North,6,0.0,5.0,19,0.00,CLR,,0.00,WeatherDisplay:10.37,2013-04-06 06:59:00,
2013-04-06 03:09:00,36.1,-2.3,30.14,WNW,302,0.0,4.0,19,0.00,CLR,,0.00,WeatherDisplay:10.37,2013-04-06 07:09:00,
2013-04-06 03:19:00,34.3,-0.6,30.14,WNW,285,5.0,6.0,22,0.00,CLR,,0.00,WeatherDisplay:10.37,2013-04-06 07:19:00,
2013-04-06 03:29:00,34.0,-1.0,30.17,NW,317,1.0,4.0,22,0.00,CLR,,0.00,WeatherDisplay:10.37,2013-04-06 07:29:00,
2013-04-06 03:39:00,34.5,6.2,30.17,WNW,299,3.0,6.0,30,0.00,CLR,,0.00,WeatherDisplay:10.37,2013-04-06 07:39:00,
2013-04-06 03:49:00,34.9,6.5,30.17,NW,306,2.0,6.0,30,0.00,CLR,,0.00,WeatherDisplay:10.37,2013-04-06 07:49:00,
2013-04-06 03:59:00,34.5,6.9,30.17,NW,319,3.0,6.0,31,0.00,CLR,,0.00,WeatherDisplay:10.37,2013-04-06 07:59:00,
2013-04-06 04:09:00,34.3,6.8,30.17,NNW,339,2.0,6.0,31,0.00,CLR,,0.00,WeatherDisplay:10.37,2013-04-06 08:09:00,
2013-04-06 04:19:00,34.2,6.6,30.17,NW,326,3.0,5.0,31,0.00,CLR,,0.00,WeatherDisplay:10.37,2013-04-06 08:19:00,
2013-04-06 04:29:00,33.8,6.3,30.17,NNW,340,0.0,5.0,31,0.00,CLR,,0.00,WeatherDisplay:10.37,2013-04-06 08:29:00,
2013-04-06 04:39:00,33.3,6.5,30.17,NNW,332,0.0,5.0,32,0.00,CLR,,0.00,WeatherDisplay:10.37,2013-04-06 08:39:00,
2013-04-06 04:49:00,33.1,7.1,30.17,NNW,329,0.0,5.0,33,0.00,CLR,,0.00,WeatherDisplay:10.37,2013-04-06 08:49:00,
2013-04-06 04:59:00,32.9,7.6,30.17,NNW,338,0.0,5.0,34,0.00,CLR,,0.00,WeatherDisplay:10.37,2013-04-06 08:59:00,
2013-04-06 05:09:00,32.5,6.6,30.17,NW,321,0.0,0.0,33,0.00,CLR,,0.00,WeatherDisplay:10.37,2013-04-06 09:09:00,
2013-04-06 05:19:00,32.4,6.4,30.17,NW,323,0.0,0.0,33,0.00,CLR,,0.00,WeatherDisplay:10.37,2013-04-06 09:19:00,
2013-04-06 05:29:00,32.2,6.9,30.17,NW,315,0.0,0.0,34,0.00,CLR,,0.00,WeatherDisplay:10.37,2013-04-06 09:29:00,
2013-04-06 05:39:00,31.5,6.3,30.20,NW,310,0.0,0.0,34,0.00,CLR,,0.00,WeatherDisplay:10.37,2013-04-06 09:39:00,
2013-04-06 05:49:00,30.6,8.5,30.20,NW,316,0.0,0.0,39,0.00,CLR,,0.00,WeatherDisplay:10.37,2013-04-06 09:49:00,
2013-04-06 06:09:00,29.8,9.0,30.23,NW,321,0.0,0.0,41,0.00,CLR,,0.00,WeatherDisplay:10.37,2013-04-06 10:09:00,
2013-04-06 06:29:00,30.8,9.9,30.23,ESE,111,0.0,4.0,41,0.00,CLR,,0.00,WeatherDisplay:10.37,2013-04-06 10:29:00,
2013-04-06 06:49:00,29.5,9.7,30.23,ESE,104,0.0,0.0,43,0.00,CLR,,0.00,WeatherDisplay:10.37,2013-04-06 10:49:00,
2013-04-06 06:59:00,29.5,9.7,30.23,ESE,104,0.0,0.0,43,0.00,CLR,,0.00,WeatherDisplay:10.37,2013-04-06 10:59:00,
2013-04-06 07:09:00,28.9,9.2,30.29,ESE,106,0.0,4.0,43,0.00,CLR,,0.00,WeatherDisplay:10.37,2013-04-06 11:09:00,
2013-04-06 07:19:00,29.1,10.4,30.29,ESE,104,1.0,4.0,45,0.00,CLR,,0.00,WeatherDisplay:10.37,2013-04-06 11:19:00,
2013-04-06 07:39:00,30.4,11.5,30.29,East,92,0.0,0.0,45,0.00,CLR,,0.00,WeatherDisplay:10.37,2013-04-06 11:39:00,
2013-04-06 07:49:00,31.0,12.6,30.29,East,87,0.0,0.0,46,0.00,CLR,,0.00,WeatherDisplay:10.37,2013-04-06 11:49:00,
2013-04-06 07:59:00,32.6,14.5,30.29,East,87,0.0,0.0,47,0.00,CLR,,0.00,WeatherDisplay:10.37,2013-04-06 11:59:00,
2013-04-06 08:19:00,35.9,16.1,30.32,WNW,287,0.0,0.0,44,0.00,CLR,,0.00,WeatherDisplay:10.37,2013-04-06 12:19:00,
2013-04-06 08:29:00,36.9,14.8,30.32,NW,326,0.0,5.0,40,0.00,CLR,,0.00,WeatherDisplay:10.37,2013-04-06 12:29:00,
2013-04-06 08:39:00,37.5,12.3,30.32,NW,309,2.0,6.0,35,0.00,CLR,,0.00,WeatherDisplay:10.37,2013-04-06 12:39:00,
2013-04-06 08:59:00,38.3,11.0,30.32,NW,309,5.0,6.0,32,0.00,CLR,,0.00,WeatherDisplay:10.37,2013-04-06 12:59:00,
2013-04-06 09:19:00,39.2,10.3,30.32,NW,324,6.0,8.0,30,0.00,CLR,,0.00,WeatherDisplay:10.37,2013-04-06 13:19:00,
2013-04-06 09:29:00,39.9,10.2,30.32,NW,316,5.0,8.0,29,0.00,CLR,,0.00,WeatherDisplay:10.37,2013-04-06 13:29:00,
2013-04-06 09:39:00,40.0,10.2,30.32,NW,325,8.0,12.0,29,0.00,CLR,,0.00,WeatherDisplay:10.37,2013-04-06 13:39:00,
2013-04-06 09:49:00,40.5,9.9,30.32,NNW,330,5.0,9.0,28,0.00,CLR,,0.00,WeatherDisplay:10.37,2013-04-06 13:49:00,
2013-04-06 09:59:00,41.0,10.3,30.32,NW,324,6.0,10.0,28,0.00,CLR,,0.00,WeatherDisplay:10.37,2013-04-06 13:59:00,
2013-04-06 10:09:00,41.5,10.8,30.32,NW,326,7.0,9.0,28,0.00,CLR,,0.00,WeatherDisplay:10.37,2013-04-06 14:09:00,
2013-04-06 10:19:00,41.9,9.5,30.32,North,357,3.0,8.0,26,0.00,CLR,,0.00,WeatherDisplay:10.37,2013-04-06 14:19:00,
2013-04-06 10:29:00,42.6,11.7,30.32,NW,308,6.0,8.0,28,0.00,CLR,,0.00,WeatherDisplay:10.37,2013-04-06 14:29:00,
2013-04-06 10:39:00,42.8,7.5,30.32,NNW,336,5.0,11.0,23,0.00,CLR,,0.00,WeatherDisplay:10.37,2013-04-06 14:39:00,
2013-04-06 10:49:00,43.3,8.0,30.32,North,355,5.0,6.0,23,0.00,CLR,,0.00,WeatherDisplay:10.37,2013-04-06 14:49:00,
2013-04-06 10:59:00,43.5,8.1,30.34,NNE,21,3.0,6.0,23,0.00,CLR,,0.00,WeatherDisplay:10.37,2013-04-06 14:59:00,
2013-04-06 11:09:00,44.2,8.7,30.32,SSE,168,0.0,6.0,23,0.00,CLR,,0.00,WeatherDisplay:10.37,2013-04-06 15:09:00,
2013-04-06 11:19:00,44.2,8.7,30.32,West,262,5.0,7.0,23,0.00,CLR,,0.00,WeatherDisplay:10.37,2013-04-06 15:19:00,
2013-04-06 11:29:00,45.0,8.3,30.34,South,173,5.0,6.0,22,0.00,CLR,,0.00,WeatherDisplay:10.37,2013-04-06 15:29:00,
2013-04-06 11:39:00,45.3,8.6,30.32,West,273,6.0,8.0,22,0.00,CLR,,0.00,WeatherDisplay:10.37,2013-04-06 15:39:00,
2013-04-06 11:49:00,46.2,8.3,30.32,West,267,6.0,6.0,21,0.00,CLR,,0.00,WeatherDisplay:10.37,2013-04-06 15:49:00,
2013-04-06 11:59:00,46.0,8.2,30.32,West,275,3.0,6.0,21,0.00,CLR,,0.00,WeatherDisplay:10.37,2013-04-06 15:59:00,
2013-04-06 12:29:00,47.5,7.2,30.32,NW,304,3.0,6.0,19,0.00,CLR,,0.00,WeatherDisplay:10.37,2013-04-06 16:29:00,
2013-04-06 12:39:00,47.9,7.5,30.32,West,269,5.0,8.0,19,0.00,CLR,,0.00,WeatherDisplay:10.37,2013-04-06 16:39:00,
2013-04-06 12:49:00,48.5,8.0,30.32,SW,217,2.0,6.0,19,0.00,CLR,,0.00,WeatherDisplay:10.37,2013-04-06 16:49:00,
2013-04-06 13:09:00,49.8,9.1,30.32,South,188,6.0,8.0,19,0.00,CLR,,0.00,WeatherDisplay:10.37,2013-04-06 17:09:00,
2013-04-06 13:19:00,49.8,5.3,30.32,SW,231,3.0,8.0,16,0.00,CLR,,0.00,WeatherDisplay:10.37,2013-04-06 17:19:00,
2013-04-06 13:29:00,50.4,5.8,30.32,SE,140,3.0,6.0,16,0.00,CLR,,0.00,WeatherDisplay:10.37,2013-04-06 17:29:00,
2013-04-06 13:39:00,50.4,5.8,30.32,ESE,109,7.0,7.0,16,0.00,CLR,,0.00,WeatherDisplay:10.37,2013-04-06 17:39:00,
2013-04-06 13:49:00,50.0,5.5,30.32,ENE,78,7.0,9.0,16,0.00,CLR,,0.00,WeatherDisplay:10.37,2013-04-06 17:49:00,
2013-04-06 13:59:00,51.0,6.3,30.32,SSE,154,5.0,8.0,16,0.00,CLR,,0.00,WeatherDisplay:10.37,2013-04-06 17:59:00,
2013-04-06 14:09:00,50.9,6.2,30.29,NW,304,6.0,6.0,16,0.00,CLR,,0.00,WeatherDisplay:10.37,2013-04-06 18:09:00,
2013-04-06 14:29:00,51.1,6.4,30.29,South,191,3.0,7.0,16,0.00,CLR,,0.00,WeatherDisplay:10.37,2013-04-06 18:29:00,
2013-04-06 14:39:00,51.6,6.8,30.29,South,191,3.0,7.0,16,0.00,CLR,,0.00,WeatherDisplay:10.37,2013-04-06 18:39:00,
2013-04-06 14:49:00,52.2,2.7,30.29,ESE,113,6.0,9.0,13,0.00,CLR,,0.00,WeatherDisplay:10.37,2013-04-06 18:49:00,
2013-04-06 14:59:00,52.0,2.6,30.29,ESE,117,6.0,9.0,13,0.00,CLR,,0.00,WeatherDisplay:10.37,2013-04-06 18:59:00,
2013-04-06 15:09:00,52.0,2.6,30.29,SE,138,8.0,11.0,13,0.00,CLR,,0.00,WeatherDisplay:10.37,2013-04-06 19:09:00,
2013-04-06 15:19:00,52.2,2.7,30.29,SE,135,8.0,12.0,13,0.00,CLR,,0.00,WeatherDisplay:10.37,2013-04-06 19:19:00,
2013-04-06 15:29:00,52.4,2.9,30.26,South,172,3.0,9.0,13,0.00,CLR,,0.00,WeatherDisplay:10.37,2013-04-06 19:29:00,
2013-04-06 15:39:00,52.5,3.0,30.26,ESE,110,5.0,9.0,13,0.00,CLR,,0.00,WeatherDisplay:10.37,2013-04-06 19:39:00,
2013-04-06 15:49:00,52.7,3.1,30.26,South,176,5.0,13.0,13,0.00,CLR,,0.00,WeatherDisplay:10.37,2013-04-06 19:49:00,
2013-04-06 15:59:00,52.9,3.3,30.26,ESE,112,5.0,12.0,13,0.00,CLR,,0.00,WeatherDisplay:10.37,2013-04-06 19:59:00,
2013-04-06 16:09:00,53.4,3.7,30.26,ESE,114,7.0,14.0,13,0.00,CLR,,0.00,WeatherDisplay:10.37,2013-04-06 20:09:00,
2013-04-06 16:19:00,53.2,3.6,30.26,East,91,6.0,11.0,13,0.00,CLR,,0.00,WeatherDisplay:10.37,2013-04-06 20:19:00,
2013-04-06 16:29:00,53.5,3.8,30.26,SE,138,8.0,10.0,13,0.00,CLR,,0.00,WeatherDisplay:10.37,2013-04-06 20:29:00,
2013-04-06 16:39:00,53.6,3.8,30.26,SSE,160,5.0,8.0,13,0.00,CLR,,0.00,WeatherDisplay:10.37,2013-04-06 20:39:00,
2013-04-06 16:59:00,54.0,4.1,30.26,SE,125,6.0,9.0,13,0.00,CLR,,0.00,WeatherDisplay:10.37,2013-04-06 20:59:00,
2013-04-06 17:09:00,54.9,4.8,30.26,South,176,3.0,9.0,13,0.00,CLR,,0.00,WeatherDisplay:10.37,2013-04-06 21:09:00,
2013-04-06 17:29:00,55.0,4.9,30.23,SSE,151,3.0,8.0,13,0.00,CLR,,0.00,WeatherDisplay:10.37,2013-04-06 21:29:00,
2013-04-06 17:39:00,55.2,5.1,30.26,SSE,167,6.0,10.0,13,0.00,CLR,,0.00,WeatherDisplay:10.37,2013-04-06 21:39:00,
2013-04-06 17:49:00,54.8,4.8,30.26,SE,130,6.0,9.0,13,0.00,CLR,,0.00,WeatherDisplay:10.37,2013-04-06 21:49:00,
2013-04-06 17:59:00,54.7,4.7,30.26,SSE,166,9.0,13.0,13,0.00,CLR,,0.00,WeatherDisplay:10.37,2013-04-06 21:59:00,
2013-04-06 18:09:00,54.6,4.6,30.26,South,184,6.0,10.0,13,0.00,CLR,,0.00,WeatherDisplay:10.37,2013-04-06 22:09:00,
2013-04-06 18:19:00,54.7,4.7,30.26,SSE,164,5.0,8.0,13,0.00,CLR,,0.00,WeatherDisplay:10.37,2013-04-06 22:19:00,
2013-04-06 18:29:00,54.5,4.6,30.26,SE,127,3.0,9.0,13,0.00,CLR,,0.00,WeatherDisplay:10.37,2013-04-06 22:29:00,
2013-04-06 18:39:00,54.1,4.3,30.26,SSE,156,3.0,9.0,13,0.00,CLR,,0.00,WeatherDisplay:10.37,2013-04-06 22:39:00,
2013-04-06 18:49:00,53.5,3.8,30.26,SE,131,7.0,9.0,13,0.00,CLR,,0.00,WeatherDisplay:10.37,2013-04-06 22:49:00,
2013-04-06 18:59:00,53.1,3.4,30.26,ESE,121,5.0,8.0,13,0.00,CLR,,0.00,WeatherDisplay:10.37,2013-04-06 22:59:00,
2013-04-06 19:09:00,52.7,3.1,30.26,SE,134,3.0,8.0,13,0.00,CLR,,0.00,WeatherDisplay:10.37,2013-04-06 23:09:00,
2013-04-06 19:39:00,50.9,3.3,30.23,ESE,121,3.0,6.0,14,0.00,CLR,,0.00,WeatherDisplay:10.37,2013-04-06 23:39:00,
2013-04-06 19:49:00,50.4,2.9,30.23,ESE,123,0.0,6.0,14,0.00,CLR,,0.00,WeatherDisplay:10.37,2013-04-06 23:49:00,
2013-04-06 19:59:00,49.6,2.3,30.23,SE,128,5.0,8.0,14,0.00,CLR,,0.00,WeatherDisplay:10.37,2013-04-06 23:59:00,
2013-04-06 20:19:00,49.6,2.3,30.23,SE,134,7.0,10.0,14,0.00,CLR,,0.00,WeatherDisplay:10.37,2013-04-07 00:19:00,
2013-04-06 20:29:00,50.0,2.6,30.23,SE,130,6.0,8.0,14,0.00,CLR,,0.00,WeatherDisplay:10.37,2013-04-07 00:29:00,
2013-04-06 20:39:00,49.6,2.3,30.23,SE,126,5.0,8.0,14,0.00,CLR,,0.00,WeatherDisplay:10.37,2013-04-07 00:39:00,
2013-04-06 20:49:00,49.3,2.0,30.23,SE,126,5.0,9.0,14,0.00,CLR,,0.00,WeatherDisplay:10.37,2013-04-07 00:49:00,
2013-04-06 20:59:00,48.9,1.7,30.23,ESE,120,7.0,10.0,14,0.00,CLR,,0.00,WeatherDisplay:10.37,2013-04-07 00:59:00,
2013-04-06 21:19:00,49.1,1.9,30.23,SE,128,8.0,13.0,14,0.00,CLR,,0.00,WeatherDisplay:10.37,2013-04-07 01:19:00,
2013-04-06 21:29:00,48.7,1.6,30.26,SE,128,8.0,13.0,14,0.00,CLR,,0.00,WeatherDisplay:10.37,2013-04-07 01:29:00,
2013-04-06 21:49:00,48.0,1.0,30.23,SE,132,9.0,13.0,14,0.00,CLR,,0.00,WeatherDisplay:10.37,2013-04-07 01:49:00,
2013-04-06 21:59:00,47.8,0.8,30.26,SE,130,9.0,17.0,14,0.00,CLR,,0.00,WeatherDisplay:10.37,2013-04-07 01:59:00,
2013-04-06 22:09:00,47.5,0.6,30.26,SE,127,10.0,15.0,14,0.00,CLR,,0.00,WeatherDisplay:10.37,2013-04-07 02:09:00,
2013-04-06 22:19:00,47.3,0.4,30.26,ESE,119,12.0,17.0,14,0.00,CLR,,0.00,WeatherDisplay:10.37,2013-04-07 02:19:00,
2013-04-06 22:29:00,46.9,0.1,30.23,SE,124,9.0,15.0,14,0.00,CLR,,0.00,WeatherDisplay:10.37,2013-04-07 02:29:00,
2013-04-06 22:39:00,46.8,0.0,30.26,SE,126,10.0,14.0,14,0.00,CLR,,0.00,WeatherDisplay:10.37,2013-04-07 02:39:00,
2013-04-06 22:49:00,46.9,0.1,30.26,SE,124,9.0,17.0,14,0.00,CLR,,0.00,WeatherDisplay:10.37,2013-04-07 02:49:00,
2013-04-06 22:59:00,46.9,0.1,30.23,SE,130,10.0,15.0,14,0.00,CLR,,0.00,WeatherDisplay:10.37,2013-04-07 02:59:00,
2013-04-06 23:09:00,46.8,0.0,30.23,SE,129,10.0,15.0,14,0.00,CLR,,0.00,WeatherDisplay:10.37,2013-04-07 03:09:00,
2013-04-06 23:19:00,46.5,-0.2,30.23,SE,126,9.0,15.0,14,0.00,CLR,,0.00,WeatherDisplay:10.37,2013-04-07 03:19:00,
2013-04-06 23:29:00,46.4,1.2,30.23,SE,127,9.0,15.0,15,0.00,CLR,,0.00,WeatherDisplay:10.37,2013-04-07 03:29:00,
2013-04-06 23:39:00,46.2,1.0,30.23,SE,130,10.0,17.0,15,0.00,CLR,,0.00,WeatherDisplay:10.37,2013-04-07 03:39:00,
2013-04-06 23:49:00,46.2,1.0,30.23,SE,129,13.0,15.0,15,0.00,CLR,,0.00,WeatherDisplay:10.37,2013-04-07 03:49:00,
2013-04-06 23:59:00,46.0,0.9,30.23,SE,135,9.0,17.0,15,0.00,CLR,,0.00,WeatherDisplay:10.37,2013-04-07 03:59:00,